Location: Colle Santa Colomba
(42.0333°N, 12.5667°E)
Time: 03:47:25
(UTC+00:00)

Meteor 1-11 - Pass Details

Date: 25 October 2021
Orbit: 840 x 887 km, 81.2° (Epoch: 28 November)

Event Time Altitude Azimuth Distance (km) Brightness Sun altitude
Rises 16:42:59 0° 355° (N) 3,413 7.3 -6.3°
Reaches altitude 10° 16:45:31 10° 2° (N) 2,478 6.5 -6.7°
Maximum altitude 16:50:53 46° 75° (ENE) 1,140 4.5 -7.7°
Drops below altitude 10° 16:56:17 10° 148° (SSE) 2,488 6.4 -8.7°
Sets 16:58:49 0° 154° (SSE) 3,427 7.2 -9.2°
